Walhalla, ND

11:36 PM CDT on March 22, 2017 (GMT -0500)
Walhalla

Weather History for K96D - September, 2012

Change the Weather History Date:

Wednesday, September 12, 2012

  Actual Average (KGAF) Record (KGAF)
Temperature  
Mean Temperature 54 °F -  
Max Temperature 68 °F 71 °F 94 °F (1952)
Min Temperature 41 °F 48 °F 32 °F (2014)
Degree Days  
Heating Degree Days 10    
Growing Degree Days 4 (Base 50)    
Moisture  
Dew Point 25 °F    
Average Humidity 30    
Maximum Humidity 57    
Minimum Humidity 17    
Precipitation  
Precipitation 0.00 in - - ()
Sea Level Pressure  
Sea Level Pressure 30.00 in    
Wind  
Wind Speed 13 mph (West)    
Max Wind Speed 28 mph    
Max Gust Speed 45 mph    
Visibility 10 miles    
Events      
Averages and records for this station are not official NWS values.
T = Trace of Precipitation, MM = Missing Value Source: NWS Daily Summary

Daily Weather History Graph

Daily Weather History Graph

Search for Another Location

Airport or City:

Trip Planner

Search our weather history database for the weather conditions in past years. The results will help you decide how hot, cold, wet, or windy it might be!

Date:

Astronomy

Sep. 12, 2012 Rise Set
Actual Time 7:04 AM CDT 7:49 PM CDT
Civil Twilight 6:32 AM CDT 8:21 PM CDT
Nautical Twilight 5:54 AM CDT 8:59 PM CDT
Astronomical Twilight 5:14 AM CDT 9:39 PM CDT
Moon 3:07 AM CDT (9/12) 5:50 PM CDT (9/12)
Length of Visible Light 13h 48m
Length of Day
12h 45m
Waning Crescent, 13% of the Moon is Illuminated
Sep 12
Waning Crescent
Sep 15
New
Sep 22
First Quarter
Sep 29
Full
Oct 8
Last Quarter

Hourly Weather History & Observations

Time (CDT) Temp. Dew Point Humidity Pressure Visibility Wind Dir Wind Speed Gust Speed Precip Events Conditions
12:15 AM 55.4 °F 26.6 °F 33% 29.89 in 10.0 mi West 6.9 mph - N/A   Clear
12:35 AM 55.4 °F 26.6 °F 33% 29.89 in 10.0 mi West 9.2 mph - N/A   Clear
12:55 AM 55.4 °F 26.6 °F 33% 29.89 in 10.0 mi West 9.2 mph - N/A   Clear
1:15 AM 55.4 °F 26.6 °F 33% 29.89 in 10.0 mi West 10.4 mph 16.1 mph N/A   Clear
1:35 AM 55.4 °F 24.8 °F 31% 29.90 in 10.0 mi West 9.2 mph 17.3 mph N/A   Clear
1:55 AM 53.6 °F 24.8 °F 33% 29.90 in 10.0 mi West 9.2 mph - N/A   Clear
2:15 AM 53.6 °F 24.8 °F 33% 29.90 in 10.0 mi West 10.4 mph 18.4 mph N/A   Clear
2:35 AM 53.6 °F 24.8 °F 33% 29.91 in 10.0 mi West 12.7 mph 19.6 mph N/A   Clear
2:55 AM 53.6 °F 26.6 °F 35% 29.91 in 10.0 mi West 9.2 mph 17.3 mph N/A   Clear
3:15 AM 53.6 °F 24.8 °F 33% 29.91 in 10.0 mi West 10.4 mph 18.4 mph N/A   Clear
3:35 AM 53.6 °F 24.8 °F 33% 29.91 in 10.0 mi West 10.4 mph 19.6 mph N/A   Clear
3:55 AM 53.6 °F 24.8 °F 33% 29.91 in 10.0 mi WSW 10.4 mph 18.4 mph N/A   Clear
4:15 AM 53.6 °F 24.8 °F 33% 29.91 in 10.0 mi WSW 11.5 mph 18.4 mph N/A   Clear
4:35 AM 53.6 °F 26.6 °F 35% 29.91 in 10.0 mi WSW 12.7 mph 19.6 mph N/A   Clear
4:55 AM 51.8 °F 26.6 °F 38% 29.92 in 10.0 mi WSW 11.5 mph 20.7 mph N/A   Clear
5:15 AM 51.8 °F 26.6 °F 38% 29.92 in 10.0 mi West 11.5 mph 20.7 mph N/A   Clear
5:35 AM 50.0 °F 26.6 °F 40% 29.92 in 10.0 mi West 12.7 mph 18.4 mph N/A   Clear
5:55 AM 50.0 °F 26.6 °F 40% 29.93 in 10.0 mi WSW 11.5 mph 18.4 mph N/A   Clear
6:15 AM 50.0 °F 26.6 °F 40% 29.93 in 10.0 mi West 10.4 mph 17.3 mph N/A   Clear
6:35 AM 50.0 °F 26.6 °F 40% 29.93 in 10.0 mi West 9.2 mph 16.1 mph N/A   Partly Cloudy
6:55 AM 50.0 °F 26.6 °F 40% 29.94 in 10.0 mi WSW 12.7 mph - N/A   Clear
7:15 AM 50.0 °F 26.6 °F 40% 29.94 in 10.0 mi West 8.1 mph 18.4 mph N/A   Clear
7:35 AM 50.0 °F 26.6 °F 40% 29.95 in 10.0 mi WSW 12.7 mph 20.7 mph N/A   Clear
7:55 AM 50.0 °F 28.4 °F 43% 29.95 in 10.0 mi West 13.8 mph 19.6 mph N/A   Clear
8:15 AM 51.8 °F 28.4 °F 41% 29.96 in 10.0 mi West 11.5 mph 19.6 mph N/A   Clear
8:35 AM 53.6 °F 28.4 °F 38% 29.96 in 10.0 mi West 15.0 mph 24.2 mph N/A   Clear
8:55 AM 53.6 °F 28.4 °F 38% 29.96 in 10.0 mi West 16.1 mph 24.2 mph N/A   Clear
9:15 AM 55.4 °F 28.4 °F 36% 29.96 in 10.0 mi West 15.0 mph 26.5 mph N/A   Clear
9:35 AM 55.4 °F 28.4 °F 36% 29.96 in 10.0 mi West 15.0 mph 24.2 mph N/A   Clear
9:55 AM 57.2 °F 28.4 °F 33% 29.97 in 10.0 mi West 16.1 mph 26.5 mph N/A   Clear
10:15 AM 57.2 °F 28.4 °F 33% 29.98 in 10.0 mi West 16.1 mph 24.2 mph N/A   Clear
10:35 AM 59.0 °F 28.4 °F 31% 29.98 in 10.0 mi West 12.7 mph 25.3 mph N/A   Clear
10:55 AM 62.6 °F 24.8 °F 24% 29.98 in 10.0 mi WNW 26.5 mph 35.7 mph N/A   Clear
11:15 AM 62.6 °F 23.0 °F 22% 29.98 in 10.0 mi WNW 20.7 mph 38.0 mph N/A   Clear
11:35 AM 64.4 °F 23.0 °F 21% 29.99 in 10.0 mi WNW 23.0 mph 39.1 mph N/A   Clear
11:55 AM 64.4 °F 23.0 °F 21% 29.99 in 10.0 mi West 23.0 mph 35.7 mph N/A   Clear
12:15 PM 64.4 °F 21.2 °F 19% 29.99 in 10.0 mi West 26.5 mph 39.1 mph N/A   Clear
12:35 PM 64.4 °F 23.0 °F 21% 30.00 in 9.0 mi West 25.3 mph 38.0 mph N/A   Clear
12:55 PM 64.4 °F 21.2 °F 19% 30.00 in 10.0 mi WNW 26.5 mph 39.1 mph N/A   Clear
1:15 PM 66.2 °F 19.4 °F 17% 29.99 in 10.0 mi West 27.6 mph 44.9 mph N/A   Clear
1:35 PM 66.2 °F 21.2 °F 18% 30.00 in 10.0 mi WNW 20.7 mph 38.0 mph N/A   Clear
1:55 PM 66.2 °F 23.0 °F 19% 30.01 in 10.0 mi West 26.5 mph 40.3 mph N/A   Clear
2:15 PM 66.2 °F 24.8 °F 21% 30.01 in 10.0 mi West 25.3 mph 38.0 mph N/A   Clear
2:35 PM 66.2 °F 24.8 °F 21% 30.01 in 10.0 mi WNW 21.9 mph 38.0 mph N/A   Clear
2:55 PM 68.0 °F 24.8 °F 20% 30.01 in 10.0 mi West 23.0 mph 32.2 mph N/A   Clear
3:15 PM 66.2 °F 24.8 °F 21% 30.01 in 10.0 mi West 26.5 mph 38.0 mph N/A   Clear
3:35 PM 66.2 °F 26.6 °F 23% 30.01 in 10.0 mi WNW 24.2 mph 39.1 mph N/A   Clear
3:55 PM 66.2 °F 28.4 °F 24% 30.02 in 10.0 mi WNW 23.0 mph 35.7 mph N/A   Clear
4:15 PM 66.2 °F 28.4 °F 24% 30.02 in 10.0 mi WNW 25.3 mph 35.7 mph N/A   Clear
4:55 PM 66.2 °F 30.2 °F 26% 30.03 in 10.0 mi WNW 21.9 mph 34.5 mph N/A   Clear
5:15 PM 66.2 °F 28.4 °F 24% 30.04 in 10.0 mi WNW 17.3 mph 39.1 mph N/A   Clear
5:35 PM 66.2 °F 28.4 °F 24% 30.05 in 10.0 mi WNW 24.2 mph 33.4 mph N/A   Partly Cloudy
5:55 PM 66.2 °F 26.6 °F 23% 30.05 in 10.0 mi WNW 17.3 mph 34.5 mph N/A   Scattered Clouds
6:15 PM 66.2 °F 24.8 °F 21% 30.06 in 10.0 mi WNW 12.7 mph 34.5 mph N/A   Mostly Cloudy
6:35 PM 66.2 °F 19.4 °F 17% 30.07 in 10.0 mi WNW 25.3 mph 35.7 mph N/A   Mostly Cloudy
6:55 PM 64.4 °F 19.4 °F 18% 30.09 in 10.0 mi NW 13.8 mph 31.1 mph N/A   Clear
7:15 PM 62.6 °F 21.2 °F 20% 30.09 in 10.0 mi NW 19.6 mph 26.5 mph N/A   Clear
7:35 PM 62.6 °F 23.0 °F 22% 30.10 in 10.0 mi NW 9.2 mph 18.4 mph N/A   Clear
7:55 PM 59.0 °F 21.2 °F 23% 30.11 in 10.0 mi WNW 8.1 mph - N/A   Clear
8:15 PM 57.2 °F 21.2 °F 25% 30.12 in 10.0 mi NW 5.8 mph - N/A   Clear
8:35 PM 55.4 °F 23.0 °F 29% 30.13 in 10.0 mi Calm Calm - N/A   Clear
8:55 PM 55.4 °F 23.0 °F 29% 30.14 in 10.0 mi WNW 3.5 mph - N/A   Clear
9:15 PM 53.6 °F 23.0 °F 30% 30.15 in 10.0 mi WNW 3.5 mph - N/A   Clear
9:35 PM 53.6 °F 23.0 °F 30% 30.15 in 10.0 mi West 3.5 mph - N/A   Clear
9:55 PM 53.6 °F 23.0 °F 30% 30.16 in 10.0 mi West 4.6 mph - N/A   Clear
10:15 PM 51.8 °F 23.0 °F 33% 30.16 in 10.0 mi WNW 3.5 mph - N/A   Clear
10:35 PM 50.0 °F 23.0 °F 35% 30.17 in 10.0 mi Calm Calm - N/A   Clear
10:55 PM 41.0 °F 26.6 °F 57% 30.18 in 10.0 mi Calm Calm - N/A   Clear
11:15 PM 48.2 °F 23.0 °F 37% 30.18 in 10.0 mi WSW 3.5 mph - N/A   Clear
11:35 PM 48.2 °F 23.0 °F 37% 30.18 in 10.0 mi WSW 4.6 mph - N/A   Clear
11:55 PM 44.6 °F 24.8 °F 46% 30.18 in 10.0 mi Calm Calm - N/A   Clear